Regional Weather Roundup
Issued by NWS

Current Version | Previous Version | Graphics & Text | Print | Product List | Glossary On
Versions: 1 2 3 4 5 6 7 8 9 10 11 12 13 14 15 16 17 18 19 20 21 22 23 24 25 26 27 28 29 30 31 32 33 34 35 36 37 38 39 40 41 42 43 44 45 46 47 48 49 50
000
ASUS42 KFFC 040910
RWRGA
WEATHER ROUNDUP FOR GEORGIA
NATIONAL WEATHER SERVICE PEACHTREE CITY GA
500 AM EDT SAT APR 04 2020

NOTE: "FAIR" INDICATES FEW OR NO CLOUDS BELOW 12,000 FEET WITH NO
SIGNIFICANT WEATHER AND/OR OBSTRUCTIONS TO VISIBILITY.

* = USE WITH CAUTION. THE STATIONS MARKED WITH AN ASTERISK MAY NOT
REPORT WEATHER SUCH AS PRECIPITATION, FOG, OR THUNDER AND ARE NOT
QUALITY CONTROLLED BY NWS.

THE REMARK "TC" DENOTES TEMPERATURE READING IN DEGREES CELSIUS.

GAZ001>058-041000-
NORTH GEORGIA

CITY           SKY/WX    TMP DP  RH WIND       PRES   REMARKS
ATLANTA        CLOUDY    60  43  53 W7        29.95R
ATHENS         FAIR      59  38  45 N5        29.92S
CHAMBLEE       CLOUDY    53  46  77 CALM      29.94S
PEACHTREE CITY FAIR      53  50  89 CALM      29.96R
ROME           CLOUDY    53  48  83 SE3       29.95R
WEST ATLANTA   MOCLDY    54  45  71 SW3       29.95R
GAINESVILLE    FAIR      55  42  61 NW3       29.96S
CARTERSVILLE   FAIR      53  46  77 CALM      29.97R


CITY           SKY/WX    TMP DP  RH WIND       PRES   REMARKS
DALTON*        MOCLDY    54  46  76 CALM      29.98R
LAWRENCEVILLE* CLOUDY    55  43  63 CALM      29.94S
MARIETTA       MOCLDY    56  43  60 CALM      29.94R
KENNESAW*      CLOUDY    57  45  64 W3        29.96R
CANTON*        CLOUDY    55  37  50 CALM      29.96R
BLAIRSVILLE*   MOCLDY    49  44  80 CALM      29.99S
$$

GAZ059>098-102>109-041000-
CENTRAL GEORGIA

CITY           SKY/WX    TMP DP  RH WIND       PRES   REMARKS
AUGUSTA-BUSH   FAIR      50  47  89 CALM      29.90F
AUGUSTA-DANIEL FAIR      58  47  66 E3        29.91F
COLUMBUS       FAIR      55  49  80 CALM      29.95F
MACON          FAIR      49  47  93 W3        29.93S
ROBINS AFB     FAIR      53  53  98 CALM      29.93R


CITY           SKY/WX    TMP DP  RH WIND       PRES   REMARKS
LAGRANGE*      FAIR      48  47  97 CALM      29.96S
SYLVANIA*      FAIR      51  49  93 CALM      29.92S
MILLEDGEVILLE* FAIR      52  50  93 CALM      29.92F
$$

GAZ099>101-110>166-041000-
SOUTH GEORGIA

CITY           SKY/WX    TMP DP  RH WIND       PRES   REMARKS
SAVANNAH       FAIR      56  50  80 CALM      29.92S
VALDOSTA       FAIR      50  47  89 CALM      29.95S FOG
ALMA           FAIR      58  47  66 CALM      29.94S
ST SIMONS      FAIR      62  53  72 W3        29.93R
FT STEWART     FAIR      52  49  90 CALM      29.91S
ALBANY         FAIR      52  50  93 SW3       29.97S
HUNTER AFB     FAIR      53  49  87 W3        29.90S
MOODY AFB      FAIR      55  49  80 CALM      29.95R
BRUNSWICK      FAIR      56  51  86 CALM      29.93S


CITY           SKY/WX    TMP DP  RH WIND       PRES   REMARKS
BAINBRIDGE*    FAIR      56  52  86 W3        29.97F
MOULTRIE*      FAIR      52  50  93 CALM      29.97R
VIDALIA*       FAIR      57  45  62 W3        29.92F
WAYCROSS*      FAIR      56  47  74 NW3       29.94S
DOUGLAS*       MOCLDY    57  49  77 CALM      29.95F
$$



USA.gov is the U.S. government's official web portal to all federal, state and local government web resources and services.